When you browse on this site, cookies collect data to enhance your experience and personalize the content and advertising you see.
Visit our Privacy Policy to learn more. By continuing to use the site, you agree to this use of cookies and data.
  • In Romania
  • List of Countries
  • For 7 days
  • Water Temperature
  • Weather Map
  • Weather Widgets
  • user-avatar
    Login

    Hourly Weather Hobart

    Today, 9 December, Monday

    Time Temperature Precipitation Wind Pressure Humidity
    00:00 +12°C° 0 mm 2 mps 749 mmHg 84%
    01:00 +12°C° 0 mm 2 mps 748 mmHg 82%
    02:00 +11°C° 0 mm 3 mps 748 mmHg 80%
    03:00 +11°C° 0 mm 3 mps 747 mmHg 78%
    04:00 +12°C° 0 mm 2 mps 747 mmHg 77%
    05:00 +13°C° 0 mm 3 mps 746 mmHg 69%
    06:00 +14°C° 0 mm 3 mps 746 mmHg 62%
    07:00 +17°C° 0 mm 3 mps 746 mmHg 55%
    08:00 +20°C° 0 mm 3 mps 746 mmHg 47%
    09:00 +24°C° 0 mm 3 mps 746 mmHg 39%
    10:00 +26°C° 0 mm 4 mps 746 mmHg 32%
    11:00 +27°C° 0 mm 4 mps 745 mmHg 29%
    12:00 +29°C° 0 mm 4 mps 745 mmHg 27%
    13:00 +30°C° 0 mm 4 mps 744 mmHg 25%
    14:00 +30°C° 0 mm 5 mps 744 mmHg 26%
    15:00 +30°C° 0 mm 5 mps 743 mmHg 27%
    16:00 +30°C° 0 mm 6 mps 743 mmHg 28%
    17:00 +26°C° 0 mm 4 mps 743 mmHg 42%
    18:00 +21°C° 0 mm 3 mps 744 mmHg 56%
    19:00 +18°C° 0 mm 1 mps 744 mmHg 70%
    20:00 +16°C° 0 mm 1 mps 744 mmHg 73%
    21:00 +15°C° 0 mm 1 mps 744 mmHg 76%
    22:00 +14°C° 0 mm 1 mps 745 mmHg 80%
    23:00 +14°C° 0 mm 1 mps 745 mmHg 82%

    Tomorrow, 10 December, Tuesday

    Time Temperature Precipitation Wind Pressure Humidity
    00:00 +13°C° 0 mm 1 mps 745 mmHg 84%
    01:00 +13°C° 0 mm 2 mps 745 mmHg 86%
    02:00 +13°C° 0 mm 2 mps 745 mmHg 88%
    03:00 +11°C° 0 mm 3 mps 746 mmHg 90%
    04:00 +11°C° 0 mm 4 mps 746 mmHg 92%
    05:00 +11°C° 0 mm 3 mps 746 mmHg 87%
    06:00 +12°C° 0 mm 3 mps 747 mmHg 81%
    07:00 +12°C° 0 mm 3 mps 748 mmHg 76%
    08:00 +13°C° 0 mm 3 mps 748 mmHg 67%
    09:00 +16°C° 0 mm 3 mps 748 mmHg 59%
    10:00 +17°C° 0 mm 4 mps 749 mmHg 51%
    11:00 +17°C° 0 mm 4 mps 749 mmHg 49%
    12:00 +18°C° 0 mm 4 mps 749 mmHg 48%
    13:00 +18°C° 0 mm 4 mps 748 mmHg 47%
    14:00 +18°C° 0 mm 4 mps 748 mmHg 48%
    15:00 +18°C° 0 mm 4 mps 748 mmHg 49%
    16:00 +17°C° 0 mm 3 mps 748 mmHg 50%
    17:00 +16°C° 0 mm 3 mps 749 mmHg 56%
    18:00 +15°C° 0 mm 2 mps 749 mmHg 62%
    19:00 +13°C° 0 mm 1 mps 749 mmHg 68%
    20:00 +12°C° 0 mm 2 mps 750 mmHg 74%
    21:00 +9°C° 0 mm 2 mps 750 mmHg 80%
    22:00 +8°C° 0 mm 2 mps 751 mmHg 86%
    23:00 +8°C° 0 mm 2 mps 750 mmHg 88%

    Day after tomorrow, 11 December, Wednesday

    Time Temperature Precipitation Wind Pressure Humidity
    00:00 +7°C° 0 mm 2 mps 750 mmHg 90%
    01:00 +7°C° 0 mm 2 mps 750 mmHg 92%
    02:00 +7°C° 0 mm 2 mps 750 mmHg 92%
    03:00 +7°C° 0 mm 2 mps 749 mmHg 92%
    04:00 +7°C° 0 mm 2 mps 749 mmHg 92%
    05:00 +9°C° 0 mm 2 mps 749 mmHg 83%
    06:00 +12°C° 0 mm 2 mps 749 mmHg 73%
    07:00 +14°C° 0 mm 2 mps 749 mmHg 64%
    08:00 +15°C° 0 mm 2 mps 749 mmHg 60%
    09:00 +17°C° 0 mm 2 mps 749 mmHg 55%
    10:00 +19°C° 0 mm 1 mps 749 mmHg 51%
    11:00 +20°C° 0 mm 1 mps 748 mmHg 50%
    12:00 +20°C° 0 mm 2 mps 748 mmHg 50%
    13:00 +20°C° 0 mm 2 mps 747 mmHg 49%
    14:00 +19°C° 0 mm 2 mps 747 mmHg 52%
    15:00 +19°C° 0 mm 2 mps 747 mmHg 56%
    16:00 +18°C° 0 mm 2 mps 746 mmHg 59%
    17:00 +17°C° 0 mm 2 mps 746 mmHg 65%
    18:00 +16°C° 0 mm 1 mps 746 mmHg 71%
    19:00 +14°C° 0 mm 1 mps 746 mmHg 77%
    20:00 +13°C° 0 mm 1 mps 746 mmHg 82%
    21:00 +12°C° 0 mm 1 mps 746 mmHg 86%
    22:00 +11°C° 0 mm 1 mps 746 mmHg 90%
    23:00 +11°C° 0 mm 1 mps 746 mmHg 90%

    12 December, Thursday

    Time Temperature Precipitation Wind Pressure Humidity
    00:00 +11°C° 0 mm 1 mps 745 mmHg 91%
    01:00 +9°C° 0 mm 2 mps 745 mmHg 91%
    02:00 +9°C° 0 mm 2 mps 745 mmHg 90%
    03:00 +8°C° 0 mm 2 mps 744 mmHg 90%
    04:00 +8°C° 0 mm 2 mps 744 mmHg 89%
    05:00 +9°C° 0 mm 3 mps 744 mmHg 81%
    06:00 +10°C° 0 mm 3 mps 744 mmHg 73%
    07:00 +12°C° 0 mm 4 mps 744 mmHg 64%
    08:00 +12°C° 0.1 mm 4 mps 744 mmHg 67%
    09:00 +12°C° 0.1 mm 3 mps 744 mmHg 69%
    10:00 +12°C° 0.1 mm 3 mps 744 mmHg 71%
    11:00 +14°C° 0.1 mm 4 mps 745 mmHg 61%
    12:00 +15°C° 0.1 mm 4 mps 745 mmHg 50%
    13:00 +17°C° 0.1 mm 5 mps 745 mmHg 40%
    14:00 +16°C° 0 mm 5 mps 745 mmHg 40%
    15:00 +16°C° 0 mm 5 mps 745 mmHg 40%
    16:00 +16°C° 0 mm 6 mps 745 mmHg 40%
    17:00 +14°C° 0 mm 5 mps 746 mmHg 46%
    18:00 +13°C° 0 mm 4 mps 746 mmHg 51%
    19:00 +11°C° 0 mm 3 mps 747 mmHg 57%
    20:00 +10°C° 0 mm 3 mps 747 mmHg 63%
    21:00 +9°C° 0 mm 3 mps 748 mmHg 68%
    22:00 +8°C° 0 mm 3 mps 748 mmHg 74%
    23:00 +7°C° 0 mm 2 mps 748 mmHg 77%

    13 December, Friday

    Time Temperature Precipitation Wind Pressure Humidity
    00:00 +7°C° 0 mm 2 mps 748 mmHg 80%
    01:00 +6°C° 0 mm 2 mps 748 mmHg 82%
    02:00 +6°C° 0 mm 2 mps 747 mmHg 84%
    03:00 +7°C° 0 mm 1 mps 747 mmHg 86%
    04:00 +6°C° 0 mm 1 mps 747 mmHg 88%
    05:00 +8°C° 0 mm 1 mps 747 mmHg 79%
    06:00 +9°C° 0 mm 2 mps 747 mmHg 71%
    07:00 +10°C° 0 mm 2 mps 747 mmHg 62%
    08:00 +13°C° 0 mm 2 mps 747 mmHg 55%
    09:00 +15°C° 0 mm 2 mps 747 mmHg 48%
    10:00 +17°C° 0 mm 2 mps 746 mmHg 42%
    11:00 +18°C° 0 mm 2 mps 746 mmHg 41%
    12:00 +19°C° 0 mm 2 mps 746 mmHg 40%
    13:00 +19°C° 0 mm 3 mps 745 mmHg 39%
    14:00 +18°C° 0 mm 3 mps 745 mmHg 42%
    15:00 +17°C° 0 mm 2 mps 744 mmHg 46%
    16:00 +17°C° 0 mm 2 mps 744 mmHg 50%
    17:00 +15°C° 0 mm 2 mps 744 mmHg 52%
    18:00 +14°C° 0 mm 1 mps 744 mmHg 55%
    19:00 +13°C° 0 mm 1 mps 743 mmHg 57%
    20:00 +12°C° 0 mm 1 mps 743 mmHg 62%
    21:00 +12°C° 0 mm 2 mps 743 mmHg 66%
    22:00 +10°C° 0 mm 2 mps 743 mmHg 70%
    23:00 +9°C° 0 mm 2 mps 743 mmHg 76%

    14 December, Saturday

    Time Temperature Precipitation Wind Pressure Humidity
    00:00 +9°C° 0 mm 2 mps 743 mmHg 83%
    01:00 +8°C° 0 mm 2 mps 742 mmHg 89%
    02:00 +9°C° 0 mm 2 mps 742 mmHg 88%
    03:00 +9°C° 0 mm 2 mps 742 mmHg 87%
    04:00 +10°C° 0 mm 2 mps 741 mmHg 86%
    05:00 +11°C° 0 mm 3 mps 741 mmHg 82%
    06:00 +12°C° 0 mm 3 mps 741 mmHg 79%
    07:00 +13°C° 0 mm 3 mps 741 mmHg 75%
    08:00 +14°C° 0.1 mm 3 mps 741 mmHg 74%
    09:00 +15°C° 0.1 mm 4 mps 741 mmHg 72%
    10:00 +15°C° 0.1 mm 4 mps 741 mmHg 71%
    11:00 +17°C° 0.1 mm 4 mps 740 mmHg 71%
    12:00 +17°C° 0.1 mm 4 mps 740 mmHg 71%
    13:00 +17°C° 0.1 mm 4 mps 740 mmHg 71%
    14:00 +15°C° 0.1 mm 5 mps 740 mmHg 72%
    15:00 +15°C° 0.1 mm 5 mps 740 mmHg 72%
    16:00 +14°C° 0.1 mm 5 mps 739 mmHg 73%
    17:00 +14°C° 0.1 mm 5 mps 740 mmHg 73%
    18:00 +13°C° 0.1 mm 5 mps 740 mmHg 74%
    19:00 +12°C° 0.1 mm 5 mps 740 mmHg 75%
    20:00 +11°C° 0 mm 4 mps 741 mmHg 76%
    21:00 +10°C° 0 mm 4 mps 741 mmHg 78%
    22:00 +10°C° 0 mm 3 mps 742 mmHg 80%
    23:00 +9°C° 0 mm 3 mps 742 mmHg 80%
    Show more